ONEWEB-0561, 56710

Orbit data source: Space-Track

ONEWEB-0561, 56710 is a payload satellite owned by One Web (NAA) (UK) in LEO that was launched on Sat, 20 May 2023 UTC via an FALCON 9 launch vehicle from the Air Force Western Test Range (AFWTR). Payloads include a variety of satellites, spacecraft, and rockets equipped with specific instruments for various scientific and technological missions. These include communications satellites like Starlink; space stations such as the ISS; scientific satellites like the Hubble; Earth observation satellites from companies like Planet Labs, Umbra, and HawkEye 360; GPS; miniature CubeSats for education and research; and military/defense satellites.

Loading next visibility...
ONEWEB-0561 details
Identifier
56710, 2023-068A
Orbit
LEO
Last TLE update1 day ago
Origin
Flag of UKOne Web (NAA) (UK)
ManufacturerOne Web
MissionOperational Commercial Communications
Bus & MotorARROW, Unknown motor
Mass148 kg wet, ~140 kg dry
Launch date (UTC)
2023-05-20 (2 years ago)
Launch vehicle
FALCON 9
Launch site
Air Force Western Test Range (AFWTR)
Object type
Payload
Rocket body
Debris
Shape & HBRTrap Box + 2 Pan, 5 m
Radar Cross Section2.032 m², Large (>1 m²)

Expand to show TLE details & history

TLE from 1 day ago
0 ONEWEB-0561
1 56710U 23068A   25014.49103409  .00000095  00000-0  20065-3 0  9990
2 56710  87.9238  17.6793 0001313  74.0669 286.0609 13.20772866 81036
Epoch: 2025-01-14T11:47Z
Definitive object data (Epoch: 2025-01-14T11:47:05.345Z)
Latitude-0.00001°
Longitude86.71006°
Altitude1,184.398 km
Speed7.262 km/s
True Right ascension01h 10m 43s
True Declination0° 00' 00"
Sunlit
Object was in daylight at TLE epoch
Visualization TLE readout
Latitude75.62783°
Longitude-101.61219°
Altitude1,193.929 km
Speed7.264 km/s
Apparent Right ascension05h 43m 46s
Apparent Declination38° 17' 55"
Sunlit
Object is in daylight
Visualization observer readout
Local Sidereal Time16:15:52
Azimuth342.691° N
Elevation-9.237°
Doppler factor1
Orbital elements
Apogee altitude1,179.866 km
Perigee altitude1,177.881 km
Semi-major axis7,557.01 km
Eccentricity0.0001313
Inclination87.9238°
RAAN17.6793°
Arg. of periapsis74.0669°
True anomaly286.04644°
Mean anomaly286.0609°
Eccentric anomaly286.05367°
Mean motion3.30383 °/min
BSTAR0.00020065
Orbital period108.96 mins
Loading maneuver chart data...
Loading historical data...
Loading historical data...
Loading historical data...
Loading historical data...
Loading historical data...
Loading historical data...
Loading historical data...

ONEWEB-0561 Visibility forecast

Observer location: undefined°, undefined

Span
Click to sort rows by Start time (UTC) header in descending order
Start Az.
Max El. time (UTC)
Max El. Az.
Max El.
End time (UTC)
End Az.
13 mins2025-01-16 00:14:59.516Z169.445° S2025-01-16 00:20:59.516Z85.928° E43.892°2025-01-16 00:27:59.516Z4.442° NNE
7 mins2025-01-16 02:07:59.516Z258.115° W2025-01-16 02:10:59.516Z287.756° WNW17.754°2025-01-16 02:14:59.516Z324.106° NNW
12 mins2025-01-16 11:39:59.516Z11.817° NNE2025-01-16 11:45:59.516Z92.767° ESE39.068°2025-01-16 11:51:59.516Z160.275° S
10 mins2025-01-16 13:29:59.516Z328.202° NNW2025-01-16 13:33:59.516Z288.08° WNW23.589°2025-01-16 13:39:59.516Z230.741° WSW
|